Location: Albany
(35.0170°S, 117.8920°E)
Time: 04:00:41
(UTC+08:00)

Vanguard 1 - Pass Details

Date: 30 January 2021
Orbit: 649 x 3833 km, 34.2° (Epoch: 26 February)

Event Time Altitude Azimuth Distance (km) Brightness Sun altitude
Rises 01:21:28 0° 280° (W) 4,422 - -35.4°
Reaches altitude 10° 01:25:01 10° 280° (W) 3,033 - -35.1°
Maximum altitude 01:31:44 80° 6° (N) 816 - -34.7°
Drops below altitude 10° 01:36:20 10° 92° (E) 2,110 - -34.4°
Exits shadow 01:36:49 - 93° (E) 2,303 12.2 -34.3°
Sets 01:38:25 0° 93° (E) 2,975 12.9 -34.2°
